User: anonymous   Login
Location: Mat�lon
(46.2791°N, 7.1028°E)
Time: 01:05:06
(UTC+00:00)
Language:

Cosmos 1898 Rocket - Orbit

View from above orbital plane
View from above orbital plane
View from above satellite
View from above satellite

Ground track
Ground track

The orbit data is extracted from the following two-line orbital elements,

1 18586U 87098B   20338.16229989  .00000137  00000-0  55083-4 0  9998
2 18586  74.0054 125.7479 0021999 244.8981 114.9889 14.36923501728743
Epoch (UTC): 03 December 2020 03:53:42
Eccentricity: 0.0021999
inclination: 74.0054°
perigee height: 753 km
apogee height: 784 km
right ascension of ascending node: 125.7479°
argument of perigee: 244.8981°
revolutions per day: 14.36923501
mean anomaly at epoch: 114.9889°
orbit number at epoch: 72874

The dashed part of the orbit path shows where the satellite is in the earth's shadow,  

DLR